Location: Byhalia Creek
(34.8270°N, 89.8040°W)
Time: 08:09:05
(UTC+00:00)

Cosmos 1025 Rocket - Pass Details

Date: 22 April 2026
Orbit: 586 x 609 km, 82.5° (Epoch: 15 May)

Event Time Altitude Azimuth Distance (km) Brightness Sun altitude
Rises 01:45:57 0° 9° (N) 2,829 6.7 -14.1°
Reaches altitude 10° 01:48:33 10° 24° (NNE) 1,927 5.6 -14.6°
Maximum altitude 01:51:56 23° 77° (ENE) 1,287 4.3 -15.2°
Enters shadow 01:52:21 22° 86° (E) 1,299 4.2 -15.3°
